Regional Weather Roundup
Issued by NWS Green Bay, WI

Home | Current Version | Previous Version | Graphics & Text | Print | Product List | Glossary Off
Versions: 1 2 3 4 5 6 7 8 9 10 11 12 13 14 15 16 17 18 19 20 21 22 23 24 25 26 27 28 29 30 31 32 33 34 35 36 37 38 39 40 41 42 43 44 45 46 47 48 49 50

000
ASUS43 KGRB 220210
RWRGRB

NORTH-CENTRAL AND NORTHEAST WISCONSIN REGIONAL WEATHER ROUNDUP
NATIONAL WEATHER SERVICE GREEN BAY WI
900 PM CDT TUE OCT 21 2014

WIZ005-009-010>012-018-019-220300-
NORTH CENTRAL WISCONSIN

CITY           SKY/WX    TMP DP  RH WIND       PRES   REMARKS
IRONWOOD       CLEAR     34  32  93 CALM      30.22R
MANITOWISH WTR   N/A     30  30 100 CALM      30.24R FOG
ARBOR VITAE    CLEAR     32  31  93 CALM      30.24R
EAGLE RIVER      N/A     30  30 100 CALM      30.25R FOG
LAND O LAKES   CLEAR     30  30  99 CALM      30.25R
RHINELANDER    CLEAR     33  31  92 CALM      30.25R
PHILLIPS       CLEAR     34  32  91 CALM      30.23R
ANTIGO         CLEAR     37  31  79 SE5       30.27R
TOMAHAWK       CLEAR     31  30  96 CALM      30.25R
MERRILL          N/A     32  31  95 CALM      30.25R FOG
$$

WIZ013-073-220300-
NORTHEAST WISCONSIN

CITY           SKY/WX    TMP DP  RH WIND       PRES   REMARKS
IRON MOUNTAIN  CLEAR     36  28  73 E6        30.28R
MARINETTE      CLEAR     39  30  70 NE6       30.29R
OCONTO         CLEAR     34  34  99 CALM      30.29R
$$

WIZ017-030-035>037-045-220300-
CENTRAL WISCONSIN

CITY           SKY/WX    TMP DP  RH WIND       PRES   REMARKS
MEDFORD        CLEAR     35  33  93 SE3       30.24R
WAUSAU         CLEAR     40  34  79 E6        30.25R
MOSINEE        CLEAR     41  34  75 SE3       30.26R
MARSHFIELD     CLEAR     41  34  76 CALM      30.24R
WISC RAPIDS    CLEAR     36  33  89 CALM      30.27R
STEVENS POINT  CLEAR     34  32  91 CALM      30.27R
WAUPACA        CLEAR     38  34  83 CALM      30.27R
SHAWANO        CLEAR     44  36  74 CALM      30.28R
CLINTONVILLE   CLEAR     36  32  87 CALM      30.27R
$$

WIZ038-039-048-051-220300-
FOX VALLEY

CITY           SKY/WX    TMP DP  RH WIND       PRES   REMARKS
NWS GREEN BAY  CLEAR     37  35  92 CALM      30.28R
APPLETON       CLEAR     43  27  52 VRB5      30.27R
OSHKOSH        CLEAR     44  36  73 SE3       30.26R
FOND DU LAC    CLEAR     40  34  79 E6        30.27R
$$

WIZ022-050-052-220300-
EAST CENTRAL WISCONSIN

CITY           SKY/WX    TMP DP  RH WIND       PRES   REMARKS
STURGEON BAY   CLEAR     41  30  65 NE6       30.29R
MANITOWOC      CLEAR     36  35  96 CALM      30.29R
SHEBOYGAN      CLEAR     35  33  92 CALM      30.28R
$$

LMZ563-521-522-541>543-220300-
LAKESHORE

STATION/POSITION TIME  TEMP    WIND        PRES    VSBY  WAVE
                       AIR SEA DIR/SP/G                  HT/PER
                 (UTC) (F)     (DEG/KT/KT) (MB)    (MI)  (FT/S)
SHEBOYGAN LKSHOR 0200   47 50   50/ 17/ 18 1025.8R
KEWAUNEE LKSHORE 0200   47      60/  6/ 11 1024.2S
NORTHPORT PIER   0200   44      20/ 10/ 14 1025.7R
N MID LAKE BUOY  0200   46 51   40/ 12/ 14 1025.9R         2/ 4
SISTER BAY LKSHO 0100           40/  6/  9   N/A
CHAMBERS ISLAND  0200   45      20/ 14/ 17 1025.7S
MENOMINEE LKSHOR 0200   47      40/ 15/ 17 1026.0R
$$



USA.gov is the U.S. government's official web portal to all federal, state and local government web resources and services.